GW1995 Weather Reports


Display with metric or nautical units.
time (UTC)temp
F
wind
direction
speed
MPH
gust
MPH
rain 1hr
in
rain 24hr
in
rain mn
in
humidity
%
barometer
mb
20260507074434 34 219 0.0 0.0 0.00 0.00 0.00 75 1013.0
20260507073932 34 219 1.0 1.0 0.00 0.00 0.00 76 1013.0
20260507073428 34 219 0.0 1.0 0.00 0.00 0.00 75 1013.2
20260507072925 35 219 0.0 1.0 0.00 0.00 0.00 74 1013.2
20260507072422 35 219 0.0 0.0 0.00 0.00 0.00 73 1013.2
20260507071915 35 219 1.0 1.0 0.00 0.00 0.00 73 1013.2
20260507071411 35 219 1.0 1.0 0.00 0.00 0.00 72 1013.3
20260507070907 35 219 1.0 1.0 0.00 0.00 0.00 72 1013.2
20260507070405 36 220 1.0 1.0 0.00 0.00 0.00 72 1013.5
20260507065901 36 220 0.0 1.0 0.00 0.00 0.00 71 1013.5
20260507065357 36 220 1.0 1.0 0.00 0.00 0.00 70 1013.5
20260507064855 36 220 0.0 1.0 0.00 0.00 0.00 70 1013.5
20260507064353 37 220 0.0 0.0 0.00 0.00 0.00 69 1013.5
20260507063851 37 220 0.0 1.0 0.00 0.00 0.00 69 1013.6
20260507063347 37 220 0.0 1.0 0.00 0.00 0.00 68 1013.5
20260507062844 37 220 0.0 0.0 0.00 0.00 0.00 68 1013.9
20260507062341 37 220 0.0 0.0 0.00 0.00 0.00 67 1013.8
20260507061839 38 220 0.0 1.0 0.00 0.00 0.00 66 1013.9
20260507061337 38 220 0.0 1.0 0.00 0.00 0.00 66 1013.7
20260507060835 38 220 0.0 1.0 0.00 0.00 0.00 65 1014.0
20260507060332 38 220 0.0 1.0 0.00 0.00 0.00 64 1014.0
20260507055828 39 220 0.0 0.0 0.00 0.00 0.00 64 1013.7
20260507055323 39 220 0.0 1.0 0.00 0.00 0.00 64 1013.7
20260507054820 39 220 0.0 1.0 0.00 0.00 0.00 64 1013.8
20260507054316 39 220 0.0 1.0 0.00 0.00 0.00 64 1013.8
20260507053814 39 220 0.0 1.0 0.00 0.00 0.00 64 1014.0
20260507053311 39 221 0.0 1.0 0.00 0.00 0.00 64 1013.8
20260507052810 39 218 1.0 1.0 0.00 0.00 0.00 63 1013.9
20260507052307 39 217 1.0 1.0 0.00 0.00 0.00 64 1014.0
20260507051804 39 222 0.0 1.0 0.00 0.00 0.00 64 1014.0
20260507051302 39 223 0.0 1.0 0.00 0.00 0.00 63 1013.9
20260507050758 39 223 0.0 1.0 0.00 0.00 0.00 63 1014.1
20260507050254 39 223 0.0 1.0 0.00 0.00 0.00 62 1013.9
20260507045751 39 223 0.0 0.0 0.00 0.00 0.00 63 1014.0
20260507045247 39 223 0.0 0.0 0.00 0.00 0.00 63 1013.9
20260507044745 39 223 0.0 0.0 0.00 0.00 0.00 62 1014.1
20260507044241 39 223 0.0 1.0 0.00 0.00 0.00 62 1014.1
20260507043737 39 223 0.0 1.0 0.00 0.00 0.00 62 1014.0
20260507043234 39 223 0.0 0.0 0.00 0.00 0.00 62 1014.2
20260507042731 39 223 0.0 1.0 0.00 0.00 0.00 62 1014.2
20260507042226 39 219 1.0 1.0 0.00 0.00 0.00 62 1014.3
20260507041724 39 223 0.0 1.0 0.00 0.00 0.00 61 1014.2
20260507041221 39 223 0.0 1.0 0.00 0.00 0.00 61 1014.5
20260507040718 39 225 0.0 1.0 0.00 0.00 0.00 62 1014.3
20260507040214 39 226 0.0 1.0 0.00 0.00 0.00 64 1014.3
20260507035710 39 231 1.0 1.0 0.00 0.00 0.00 63 1014.3
20260507035205 39 231 0.0 1.0 0.00 0.00 0.00 63 1014.4
20260507034702 39 231 0.0 0.0 0.00 0.00 0.00 62 1014.5
20260507034200 39 231 0.0 1.0 0.00 0.00 0.00 62 1014.4
20260507033658 39 231 0.0 1.0 0.00 0.00 0.00 62 1014.4
20260507033155 39 232 0.0 0.0 0.00 0.00 0.00 61 1014.6
20260507032653 39 232 0.0 1.0 0.00 0.00 0.00 61 1014.6
20260507032148 38 232 0.0 1.0 0.00 0.00 0.00 61 1014.6
20260507031645 38 232 0.0 1.0 0.00 0.00 0.00 62 1014.6
20260507031142 38 231 1.0 1.0 0.00 0.00 0.00 61 1014.7
20260507030639 38 231 0.0 1.0 0.00 0.00 0.00 60 1014.8
20260507030137 38 231 0.0 1.0 0.00 0.00 0.00 61 1014.7
20260507025633 39 232 0.0 0.0 0.00 0.00 0.00 60 1014.6
20260507025130 39 231 0.0 1.0 0.00 0.00 0.00 59 1014.7
20260507024628 39 232 0.0 1.0 0.00 0.00 0.00 58 1014.6
20260507024125 39 231 0.0 1.0 0.00 0.00 0.00 58 1014.8
20260507023621 40 232 0.0 1.0 0.00 0.00 0.00 57 1014.6
20260507023119 40 232 0.0 1.0 0.00 0.00 0.00 56 1014.5
20260507022615 40 232 0.0 0.0 0.00 0.00 0.00 55 1014.6
20260507022110 41 232 0.0 0.0 0.00 0.00 0.00 55 1014.6
20260507021607 41 232 0.0 0.0 0.00 0.00 0.00 54 1014.6
20260507021103 41 232 0.0 1.0 0.00 0.00 0.00 54 1014.7
20260507020602 41 232 0.0 1.0 0.00 0.00 0.00 53 1014.6
20260507020057 42 247 0.0 0.0 0.00 0.00 0.00 52 1014.6
20260507015556 42 247 0.0 1.0 0.00 0.00 0.00 52 1014.7
20260507015053 42 247 0.0 1.0 0.00 0.00 0.00 51 1014.6
20260507014550 43 247 1.0 1.0 0.00 0.00 0.00 50 1014.6
20260507014045 43 244 1.0 1.0 0.00 0.00 0.00 49 1014.5
20260507013542 43 242 0.0 1.0 0.00 0.00 0.00 49 1014.5
20260507013039 44 247 1.0 2.0 0.00 0.00 0.00 48 1014.6
20260507012536 44 234 1.0 3.0 0.00 0.00 0.00 48 1014.7
20260507012027 44 246 1.0 2.0 0.00 0.00 0.00 47 1014.6
20260507011524 44 245 0.0 1.0 0.00 0.00 0.00 48 1014.6
20260507011020 45 249 1.0 2.0 0.00 0.00 0.00 48 1014.6
20260507010515 45 241 1.0 2.0 0.00 0.00 0.00 48 1014.7
20260507010012 45 241 1.0 1.0 0.00 0.00 0.00 48 1014.8
20260507005509 45 271 1.0 3.0 0.00 0.00 0.00 48 1014.6
20260507005005 45 212 2.0 3.0 0.00 0.00 0.00 47 1014.8
20260507004502 45 304 3.0 5.0 0.00 0.00 0.00 47 1014.6
20260507004000 45 255 1.0 1.0 0.00 0.00 0.00 48 1014.7
20260507003455 45 266 0.0 3.0 0.00 0.00 0.00 47 1014.8
20260507002950 45 253 1.0 3.0 0.00 0.00 0.00 47 1014.6
20260507002447 45 319 2.0 5.0 0.00 0.00 0.00 47 1014.8
20260507001944 45 306 2.0 6.0 0.00 0.00 0.00 48 1014.8
20260507001440 45 270 3.0 8.0 0.00 0.00 0.00 47 1014.7
20260507000938 45 300 2.0 3.0 0.00 0.00 0.00 47 1014.7
20260507000435 45 305 3.0 6.0 0.00 0.00 0.00 46 1015.0
20260506235929 45 230 2.0 3.0 0.00 0.00 0.00 47 1014.9
20260506235427 45 288 1.0 7.0 0.00 0.00 0.00 48 1014.8
20260506234921 45 336 1.0 6.0 0.00 0.00 0.00 48 1014.8
20260506234419 45 257 3.0 5.0 0.00 0.00 0.00 47 1014.9
20260506233912 45 304 2.0 5.0 0.00 0.00 0.00 47 1014.9
20260506233407 45 273 2.0 5.0 0.00 0.00 0.00 47 1014.8
20260506232905 45 325 3.0 5.0 0.00 0.00 0.00 48 1015.1
20260506232401 45 310 1.0 2.0 0.00 0.00 0.00 48 1015.1
20260506231856 45 249 1.0 3.0 0.00 0.00 0.00 48 1015.0
20260506231354 45 254 1.0 2.0 0.00 0.00 0.00 48 1015.0
20260506230852 45 260 3.0 3.0 0.00 0.00 0.00 48 1015.3
20260506230348 44 269 1.0 3.0 0.00 0.00 0.00 48 1015.0
20260506225844 44 280 2.0 5.0 0.00 0.00 0.00 47 1015.1
20260506225342 44 289 2.0 7.0 0.00 0.00 0.00 48 1015.1
20260506224839 45 300 2.0 3.0 0.00 0.00 0.00 48 1015.1
20260506224336 45 287 3.0 5.0 0.00 0.00 0.00 48 1015.1
20260506223832 45 313 1.0 7.0 0.00 0.00 0.00 48 1015.1
20260506223327 45 281 2.0 3.0 0.00 0.00 0.00 47 1015.2
20260506222825 44 233 1.0 3.0 0.00 0.00 0.00 48 1015.2
20260506222320 44 270 3.0 3.0 0.00 0.00 0.00 48 1015.3
20260506221818 44 331 3.0 6.0 0.00 0.00 0.00 49 1015.2
20260506221316 44 249 2.0 3.0 0.00 0.00 0.00 48 1015.1
20260506220813 44 237 1.0 5.0 0.00 0.00 0.00 49 1015.1
20260506220308 45 305 2.0 3.0 0.00 0.00 0.00 49 1015.4
20260506215805 44 247 1.0 2.0 0.00 0.00 0.00 50 1015.2
20260506215301 44 199 2.0 6.0 0.00 0.00 0.00 49 1015.6
20260506214756 44 317 2.0 7.0 0.00 0.00 0.00 49 1015.3
20260506214254 44 260 2.0 3.0 0.00 0.00 0.00 49 1015.3
20260506213752 44 260 3.0 5.0 0.00 0.00 0.00 49 1015.4
20260506213249 44 268 1.0 3.0 0.00 0.00 0.00 49 1015.4
20260506212746 44 303 3.0 6.0 0.00 0.00 0.00 49 1015.6
20260506212242 44 325 3.0 10.0 0.00 0.00 0.00 49 1015.5
20260506211737 44 279 3.0 3.0 0.00 0.00 0.00 49 1015.5
20260506211234 44 287 4.0 5.0 0.00 0.00 0.00 48 1015.5
20260506210731 44 264 3.0 6.0 0.00 0.00 0.00 49 1015.6
20260506210228 44 227 3.0 6.0 0.00 0.00 0.00 49 1015.7
20260506205725 44 290 2.0 3.0 0.00 0.00 0.00 49 1015.7
20260506205220 44 274 3.0 6.0 0.00 0.00 0.00 49 1015.6
20260506204717 44 297 4.0 8.0 0.00 0.00 0.00 49 1015.5
20260506204214 44 302 2.0 5.0 0.00 0.00 0.00 49 1015.6
20260506203712 44 279 2.0 3.0 0.00 0.00 0.00 49 1015.5
20260506203209 44 292 2.0 3.0 0.00 0.00 0.00 48 1015.5
20260506202702 44 237 3.0 7.0 0.00 0.00 0.00 49 1015.6
20260506202157 43 282 4.0 5.0 0.00 0.00 0.00 49 1015.7
20260506201655 44 222 3.0 5.0 0.00 0.00 0.00 48 1015.6
20260506201151 44 277 3.0 6.0 0.00 0.00 0.00 48 1015.7
20260506200648 44 222 2.0 2.0 0.00 0.00 0.00 48 1015.7
20260506200144 43 274 3.0 7.0 0.00 0.00 0.00 49 1015.6
20260506195641 43 260 2.0 9.0 0.00 0.00 0.00 49 1015.6
20260506195137 44 281 4.0 8.0 0.00 0.00 0.00 48 1015.6
20260506194635 43 285 1.0 3.0 0.00 0.00 0.00 49 1015.8
20260506194131 43 265 2.0 5.0 0.00 0.00 0.00 49 1015.7
20260506193629 43 289 3.0 6.0 0.00 0.00 0.00 49 1015.8
20260506193126 43 255 3.0 7.0 0.00 0.00 0.00 48 1015.7
20260506192623 43 272 1.0 6.0 0.00 0.00 0.00 49 1015.7
20260506192118 43 227 3.0 5.0 0.00 0.00 0.00 48 1015.8
20260506191616 43 245 2.0 5.0 0.00 0.00 0.00 48 1015.9
20260506191111 43 274 2.0 7.0 0.00 0.00 0.00 48 1015.9
20260506190609 43 226 5.0 6.0 0.00 0.00 0.00 48 1015.7
20260506190106 43 261 3.0 7.0 0.00 0.00 0.00 49 1015.7
20260506185603 43 246 1.0 7.0 0.00 0.00 0.00 47 1015.7
20260506185059 43 212 1.0 6.0 0.00 0.00 0.00 48 1015.8
20260506184557 43 274 3.0 6.0 0.00 0.00 0.00 49 1016.0
20260506184054 43 302 2.0 6.0 0.00 0.00 0.00 49 1015.7
20260506183550 43 241 6.0 7.0 0.00 0.00 0.00 49 1015.6
20260506183046 43 221 3.0 8.0 0.00 0.00 0.00 49 1015.7
20260506182544 43 246 6.0 8.0 0.00 0.00 0.00 48 1015.9
20260506182041 43 295 3.0 5.0 0.00 0.00 0.00 48 1015.9
20260506181539 43 261 3.0 7.0 0.00 0.00 0.00 48 1016.0
20260506181035 42 221 2.0 8.0 0.00 0.00 0.00 49 1015.8
20260506180532 43 275 4.0 8.0 0.00 0.00 0.00 49 1015.9
20260506180029 42 240 2.0 5.0 0.00 0.00 0.00 49 1016.1
20260506175525 42 235 3.0 7.0 0.00 0.00 0.00 49 1015.9
20260506175022 42 283 4.0 8.0 0.00 0.00 0.00 50 1016.1
20260506174520 42 271 2.0 7.0 0.00 0.00 0.00 50 1016.1
20260506174016 42 313 3.0 5.0 0.00 0.00 0.00 49 1016.0
20260506173514 42 258 4.0 5.0 0.00 0.00 0.00 50 1016.2
20260506173011 42 297 2.0 7.0 0.00 0.00 0.00 49 1016.2
20260506172508 42 257 3.0 7.0 0.00 0.00 0.00 49 1016.1
20260506172004 42 261 2.0 6.0 0.00 0.00 0.00 50 1016.2
20260506171501 42 268 4.0 8.0 0.00 0.00 0.00 49 1016.0
20260506170958 42 254 1.0 6.0 0.00 0.00 0.00 50 1016.1
20260506170455 41 303 2.0 8.0 0.00 0.00 0.00 49 1016.2
20260506165948 42 273 3.0 5.0 0.00 0.00 0.00 49 1016.4
20260506165446 41 281 3.0 8.0 0.00 0.00 0.00 49 1016.2
20260506164936 41 229 4.0 10.0 0.00 0.00 0.00 49 1016.4
20260506164433 41 263 3.0 7.0 0.00 0.00 0.00 50 1016.2
20260506163931 41 291 2.0 10.0 0.00 0.00 0.00 50 1016.4
20260506163426 41 275 2.0 9.0 0.00 0.00 0.00 50 1016.1
20260506162921 41 258 4.0 6.0 0.00 0.00 0.00 50 1016.1
20260506162418 41 215 3.0 8.0 0.00 0.00 0.00 50 1016.2
20260506161910 41 183 4.0 7.0 0.00 0.00 0.00 50 1016.1
20260506161408 41 336 7.0 9.0 0.00 0.00 0.00 50 1015.9
20260506160904 41 314 5.0 6.0 0.00 0.00 0.00 49 1016.1
20260506160401 41 301 5.0 6.0 0.00 0.00 0.00 50 1016.1
20260506155900 42 269 3.0 5.0 0.00 0.00 0.00 49 1016.1
20260506155357 42 282 5.0 7.0 0.00 0.00 0.00 49 1016.1
20260506153519 41 263 2.0 9.0 0.00 0.00 0.00 49 1015.9
20260506153017 41 216 5.0 8.0 0.00 0.00 0.00 49 1015.9
20260506152514 41 267 5.0 7.0 0.00 0.00 0.00 49 1016.0
20260506152012 42 261 3.0 5.0 0.00 0.00 0.00 49 1015.9
20260506151509 41 274 5.0 13.0 0.00 0.00 0.00 50 1015.9
20260506151006 42 290 3.0 6.0 0.00 0.00 0.00 50 1016.0
20260506150502 41 254 1.0 9.0 0.00 0.00 0.00 49 1016.1
20260506145959 41 218 3.0 6.0 0.00 0.00 0.00 51 1015.9
20260506145456 41 292 1.0 6.0 0.00 0.00 0.00 50 1015.7
20260506144954 42 289 4.0 7.0 0.00 0.00 0.00 50 1016.0
20260506144450 42 247 5.0 7.0 0.00 0.00 0.00 51 1016.1
20260506143948 42 265 1.0 6.0 0.00 0.00 0.00 52 1016.1
20260506143445 42 248 4.0 6.0 0.00 0.00 0.00 52 1016.1
20260506142944 42 216 5.0 7.0 0.00 0.00 0.00 51 1015.9
20260506142441 41 278 2.0 7.0 0.00 0.00 0.00 53 1015.8
20260506141939 42 253 2.0 6.0 0.00 0.00 0.00 52 1015.9
20260506141436 42 300 3.0 3.0 0.00 0.00 0.00 53 1015.9
20260506140935 41 266 3.0 8.0 0.00 0.00 0.00 53 1015.9
20260506140431 41 210 2.0 6.0 0.00 0.00 0.00 53 1015.8
20260506135928 41 260 2.0 3.0 0.00 0.00 0.00 53 1015.8
20260506135425 41 309 4.0 5.0 0.00 0.00 0.00 53 1015.7
20260506134922 41 278 5.0 8.0 0.00 0.00 0.00 53 1015.7
20260506134418 41 235 2.0 3.0 0.00 0.00 0.00 56 1015.7
20260506133915 40 282 3.0 5.0 0.00 0.00 0.00 56 1015.9
20260506133411 40 263 4.0 7.0 0.00 0.00 0.00 56 1015.8
20260506132908 40 250 2.0 6.0 0.00 0.00 0.00 57 1015.6
20260506132405 40 254 3.0 8.0 0.00 0.00 0.00 56 1015.5
20260506131904 40 260 4.0 5.0 0.00 0.00 0.00 57 1015.7
20260506131359 39 292 1.0 5.0 0.00 0.00 0.00 57 1015.6
20260506130856 39 248 1.0 3.0 0.00 0.00 0.00 58 1015.4
20260506130353 39 282 5.0 7.0 0.00 0.00 0.00 59 1015.5
20260506125851 39 306 2.0 5.0 0.00 0.00 0.00 60 1015.2
20260506125349 38 329 0.0 2.0 0.00 0.00 0.00 61 1015.3
20260506124847 38 228 1.0 3.0 0.00 0.00 0.00 61 1015.1
20260506124343 38 324 2.0 5.0 0.00 0.00 0.00 61 1015.2
20260506123841 38 299 2.0 2.0 0.00 0.00 0.00 63 1015.1
20260506123340 37 270 1.0 3.0 0.00 0.00 0.00 64 1014.9
20260506122836 37 275 1.0 2.0 0.00 0.00 0.00 64 1015.1
20260506122333 37 254 2.0 3.0 0.00 0.00 0.00 66 1015.1
20260506121832 35 336 3.0 3.0 0.00 0.00 0.00 69 1015.0
20260506121328 34 276 0.0 1.0 0.00 0.00 0.00 72 1014.9
20260506120825 33 258 0.0 1.0 0.00 0.00 0.00 74 1014.8
20260506120323 32 230 0.0 1.0 0.00 0.00 0.00 75 1014.8
20260506115820 32 230 0.0 0.0 0.00 0.00 0.00 76 1014.9
20260506115318 31 230 0.0 1.0 0.00 0.00 0.00 77 1014.8
20260506114816 30 230 0.0 0.0 0.00 0.00 0.00 78 1014.5
20260506114314 30 230 0.0 1.0 0.00 0.00 0.00 78 1014.7
20260506113812 30 230 0.0 1.0 0.00 0.00 0.00 78 1014.4
20260506113309 30 230 0.0 0.0 0.00 0.00 0.00 78 1014.5
20260506112806 30 230 0.0 0.0 0.00 0.00 0.00 78 1014.5
20260506112305 30 230 0.0 1.0 0.00 0.00 0.00 78 1014.5
20260506111800 30 231 0.0 1.0 0.00 0.00 0.00 78 1014.5
20260506111258 30 231 0.0 0.0 0.00 0.00 0.00 78 1014.5
20260506110755 30 231 0.0 1.0 0.00 0.00 0.00 79 1014.4
20260506110253 30 231 0.0 0.0 0.00 0.00 0.00 79 1014.4
20260506105749 30 231 0.0 1.0 0.00 0.00 0.00 79 1014.4
20260506105246 30 231 0.0 1.0 0.00 0.00 0.00 79 1014.4
20260506104744 30 231 0.0 0.0 0.00 0.00 0.00 80 1014.5
20260506104241 30 231 0.0 1.0 0.00 0.00 0.00 80 1014.3
20260506103738 30 231 0.0 1.0 0.00 0.00 0.00 81 1014.2
20260506103235 30 232 0.0 1.0 0.00 0.00 0.00 81 1014.3
20260506102733 30 249 1.0 1.0 0.00 0.00 0.00 81 1014.0
20260506102231 30 255 0.0 0.0 0.00 0.00 0.00 80 1014.1
20260506101728 30 255 1.0 1.0 0.00 0.00 0.00 80 1014.1
20260506101224 31 255 0.0 1.0 0.00 0.00 0.00 80 1014.0
20260506100722 31 255 0.0 1.0 0.00 0.00 0.00 79 1013.9
20260506100220 31 256 0.0 1.0 0.00 0.00 0.00 78 1014.0
20260506095718 31 256 1.0 1.0 0.00 0.00 0.00 78 1014.2
20260506095215 31 256 1.0 1.0 0.00 0.00 0.00 77 1013.9
20260506094712 32 256 1.0 1.0 0.00 0.00 0.00 77 1014.1
20260506094210 32 257 0.0 1.0 0.00 0.00 0.00 76 1014.1
20260506093709 32 257 0.0 0.0 0.00 0.00 0.00 76 1014.1
20260506093205 32 257 0.0 1.0 0.00 0.00 0.00 75 1014.0
20260506092703 32 257 0.0 1.0 0.00 0.00 0.00 75 1014.1
20260506092200 32 257 0.0 1.0 0.00 0.00 0.00 75 1014.0
20260506091658 32 257 0.0 1.0 0.00 0.00 0.00 74 1014.0
20260506091155 33 257 0.0 0.0 0.00 0.00 0.00 74 1014.0
20260506090653 33 257 0.0 1.0 0.00 0.00 0.00 74 1014.1
20260506090149 33 257 0.0 0.0 0.00 0.00 0.00 73 1013.8
20260506085646 33 257 0.0 1.0 0.00 0.00 0.00 73 1014.1
20260506085142 33 257 0.0 1.0 0.00 0.00 0.00 72 1014.0
20260506084639 33 258 0.0 0.0 0.00 0.00 0.00 72 1013.7
20260506084136 33 258 0.0 0.0 0.00 0.00 0.00 71 1013.5
20260506083633 34 257 0.0 0.0 0.00 0.00 0.00 71 1013.7
20260506083130 34 257 0.0 0.0 0.00 0.00 0.00 71 1013.8
20260506082627 34 257 0.0 0.0 0.00 0.00 0.00 71 1014.0
20260506082122 34 257 0.0 1.0 0.00 0.00 0.00 70 1014.0
20260506081621 34 281 0.0 0.0 0.00 0.00 0.00 70 1014.0
20260506081118 35 281 0.0 1.0 0.00 0.00 0.00 70 1013.9
20260506080616 35 281 0.0 0.0 0.00 0.00 0.00 69 1013.8
20260506080112 35 281 0.0 0.0 0.00 0.00 0.00 68 1013.8